Flag for Colombia Weather past 2 weeks in Manizales, Colombia

Now
66 °F

Thunderstorms. Passing clouds.


Feels Like: 66 °F
Forecast: 56 / 70 °F
Wind: 5 mph from Northwest

Location: Pereira / Matecana

Current Time: Mar 31, 2015 at 12:30:30 AM

Latest Report: Mar 31, 2015 at 12:00 AM


Visibility: N/A

Pressure: 30.12 "Hg

Humidity: 88%

Dew point: 63 °F

Location of ManizalesLocation

Historic Weather in Manizales — Graph

°F

Manizales temperature yesterday

Maximum temperature yesterday: 81 °F (at 2:00 PM)
Minimum temperature yesterday: 64 °F (at 5:00 AM)
Average temperature yesterday: 72 °F

Past Weeks' High & Low Weather Summary

 TemperatureHumidityPressure
High82 °F (Mar 17, 2:00 PM)100% (Mar 16, 5:00 AM)30.19 "Hg (Mar 16, 5:00 AM)
Low63 °F (Mar 21, 6:00 AM)48% (Mar 23, 4:00 PM)29.94 "Hg (Mar 17, 4:00 PM)
Average71 °F79%30.09 "Hg
* Reported Mar 15 11:00 PM — Mar 30 11:00 PM, Manizales, Weather by CustomWeather, © 2015

Note: Actual official high and low records may vary slightly from our data, if they occured in-between our weather recording intervals... More about our weather records

Advertising

Manizales weather history for previous 24 hours

 ConditionsComfort  
Time TempWeatherWind HumidityBarometerVisibility
11:00 PM
Mon, Mar 30
68 °FPassing clouds.7 mph78%30.13 "HgN/A
10:00 PM68 °FPassing clouds.7 mph78%30.12 "HgN/A
9:00 PM68 °FPassing clouds.6 mph78%30.06 "HgN/A
8:00 PM68 °FPassing clouds.9 mph83%30.06 "HgN/A
7:00 PM70 °FPassing clouds.7 mph83%30.04 "HgN/A
6:00 PM72 °FScattered showers. Scattered clouds.9 mph73%30.02 "HgN/A
5:00 PM73 °FScattered showers. Scattered clouds.9 mph74%30.01 "HgN/A
4:00 PM77 °FScattered showers. Scattered clouds.9 mph65%30.00 "HgN/A
3:00 PM81 °FScattered clouds.6 mph58%30.01 "HgN/A
2:00 PM81 °FScattered clouds.6 mph58%30.04 "HgN/A
1:00 PM79 °FPassing clouds.7 mph58%30.07 "HgN/A
12:00 PM79 °FPassing clouds.6 mph61%30.11 "HgN/A
11:00 AM77 °FPassing clouds.5 mph65%30.15 "HgN/A
10:00 AM75 °FPassing clouds.6 mph69%30.17 "HgN/A
9:00 AM70 °FScattered clouds.5 mph78%30.17 "HgN/A
8:00 AM70 °FScattered clouds.2 mph73%30.15 "Hg5 mi
7:00 AM64 °FScattered clouds.6 mph83%30.13 "Hg5 mi
6:00 AM64 °FPassing clouds.7 mph83%30.11 "Hg6 mi
5:00 AM64 °FPassing clouds.3 mph83%30.10 "Hg5 mi
12:00 AM66 °FPassing clouds.7 mph78%30.16 "HgN/A
Weather by CustomWeather, © 2015

See weather overviewHow to use our weather pages